When you browse on this site, cookies collect data to enhance your experience and personalize the content and advertising you see.
Visit our Privacy Policy to learn more. By continuing to use the site, you agree to this use of cookies and data.
  • In Lithuania
  • List of Countries
  • For 7 days
  • Water Temperature
  • Satellite Maps
  • Weather Map
  • Weather Widgets
  • user-avatar
    Login

    Hourly Weather Caracas

    Today, 22 March, Friday

    Time Temperature Precipitation Wind Pressure Humidity
    00:00 +17°C° 0 mm 3 mps 649 mmHg 94%
    01:00 +17°C° 0 mm 2 mps 649 mmHg 94%
    02:00 +17°C° 0 mm 2 mps 649 mmHg 95%
    03:00 +17°C° 0 mm 2 mps 649 mmHg 95%
    04:00 +17°C° 0 mm 2 mps 648 mmHg 95%
    05:00 +16°C° 0 mm 2 mps 648 mmHg 95%
    06:00 +17°C° 0 mm 2 mps 649 mmHg 92%
    07:00 +17°C° 0 mm 2 mps 649 mmHg 89%
    08:00 +18°C° 0 mm 2 mps 650 mmHg 86%
    09:00 +20°C° 0 mm 3 mps 651 mmHg 75%
    10:00 +22°C° 0 mm 3 mps 652 mmHg 64%
    11:00 +26°C° 0 mm 3 mps 652 mmHg 53%
    12:00 +26°C° 0 mm 3 mps 652 mmHg 51%
    13:00 +27°C° 0 mm 3 mps 651 mmHg 48%
    14:00 +28°C° 0 mm 3 mps 651 mmHg 46%
    15:00 +27°C° 0 mm 3 mps 650 mmHg 51%
    16:00 +26°C° 0 mm 3 mps 649 mmHg 56%
    17:00 +25°C° 0 mm 3 mps 648 mmHg 61%
    18:00 +22°C° 0 mm 3 mps 648 mmHg 70%
    19:00 +20°C° 0 mm 2 mps 648 mmHg 80%
    20:00 +18°C° 0 mm 2 mps 648 mmHg 90%
    21:00 +18°C° 0 mm 2 mps 649 mmHg 91%
    22:00 +17°C° 0 mm 2 mps 649 mmHg 92%
    23:00 +17°C° 0 mm 2 mps 650 mmHg 94%

    Tomorrow, 23 March, Saturday

    Time Temperature Precipitation Wind Pressure Humidity
    00:00 +17°C° 0 mm 2 mps 649 mmHg 94%
    01:00 +17°C° 0 mm 2 mps 649 mmHg 94%
    02:00 +17°C° 0 mm 2 mps 649 mmHg 95%
    03:00 +17°C° 0 mm 2 mps 649 mmHg 94%
    04:00 +17°C° 0 mm 2 mps 649 mmHg 94%
    05:00 +17°C° 0 mm 3 mps 649 mmHg 94%
    06:00 +17°C° 0 mm 3 mps 649 mmHg 91%
    07:00 +18°C° 0 mm 3 mps 650 mmHg 87%
    08:00 +18°C° 0 mm 3 mps 650 mmHg 84%
    09:00 +21°C° 0 mm 3 mps 651 mmHg 71%
    10:00 +24°C° 0 mm 3 mps 652 mmHg 59%
    11:00 +26°C° 0 mm 3 mps 653 mmHg 46%
    12:00 +27°C° 0 mm 3 mps 653 mmHg 45%
    13:00 +27°C° 0 mm 3 mps 652 mmHg 43%
    14:00 +28°C° 0 mm 3 mps 651 mmHg 42%
    15:00 +27°C° 0 mm 3 mps 651 mmHg 46%
    16:00 +26°C° 0 mm 4 mps 650 mmHg 49%
    17:00 +25°C° 0 mm 4 mps 649 mmHg 53%
    18:00 +22°C° 0 mm 3 mps 649 mmHg 64%
    19:00 +20°C° 0 mm 3 mps 649 mmHg 74%
    20:00 +18°C° 0 mm 2 mps 649 mmHg 85%
    21:00 +18°C° 0 mm 2 mps 649 mmHg 87%
    22:00 +18°C° 0 mm 2 mps 650 mmHg 90%
    23:00 +17°C° 0 mm 2 mps 650 mmHg 93%

    Day after tomorrow, 24 March, Sunday

    Time Temperature Precipitation Wind Pressure Humidity
    00:00 +17°C° 0 mm 2 mps 650 mmHg 92%
    01:00 +17°C° 0 mm 2 mps 649 mmHg 92%
    02:00 +16°C° 0 mm 2 mps 649 mmHg 92%
    03:00 +16°C° 0 mm 2 mps 649 mmHg 93%
    04:00 +16°C° 0 mm 2 mps 649 mmHg 93%
    05:00 +16°C° 0 mm 2 mps 649 mmHg 93%
    06:00 +17°C° 0 mm 3 mps 649 mmHg 91%
    07:00 +17°C° 0 mm 3 mps 650 mmHg 88%
    08:00 +18°C° 0 mm 3 mps 651 mmHg 85%
    09:00 +20°C° 0 mm 3 mps 651 mmHg 74%
    10:00 +22°C° 0 mm 3 mps 652 mmHg 63%
    11:00 +25°C° 0 mm 3 mps 653 mmHg 52%
    12:00 +26°C° 0 mm 4 mps 652 mmHg 50%
    13:00 +26°C° 0 mm 4 mps 652 mmHg 48%
    14:00 +27°C° 0 mm 4 mps 651 mmHg 46%
    15:00 +26°C° 0 mm 4 mps 650 mmHg 48%
    16:00 +25°C° 0 mm 4 mps 649 mmHg 50%
    17:00 +23°C° 0 mm 4 mps 649 mmHg 53%
    18:00 +21°C° 0 mm 3 mps 649 mmHg 64%
    19:00 +19°C° 0 mm 3 mps 648 mmHg 76%
    20:00 +17°C° 0 mm 3 mps 648 mmHg 87%
    21:00 +17°C° 0 mm 2 mps 649 mmHg 89%
    22:00 +17°C° 0 mm 2 mps 649 mmHg 91%
    23:00 +17°C° 0 mm 2 mps 649 mmHg 93%

    25 March, Monday

    Time Temperature Precipitation Wind Pressure Humidity
    00:00 +17°C° 0 mm 2 mps 649 mmHg 93%
    01:00 +17°C° 0 mm 2 mps 648 mmHg 94%
    02:00 +17°C° 0 mm 2 mps 648 mmHg 94%
    03:00 +17°C° 0.1 mm 2 mps 648 mmHg 94%
    04:00 +17°C° 0.1 mm 2 mps 648 mmHg 94%
    05:00 +17°C° 0.1 mm 3 mps 648 mmHg 93%
    06:00 +17°C° 0.1 mm 3 mps 648 mmHg 91%
    07:00 +17°C° 0.1 mm 3 mps 649 mmHg 89%
    08:00 +18°C° 0.1 mm 3 mps 649 mmHg 87%
    09:00 +19°C° 0 mm 3 mps 650 mmHg 78%
    10:00 +21°C° 0 mm 3 mps 651 mmHg 68%
    11:00 +24°C° 0 mm 3 mps 651 mmHg 59%
    12:00 +25°C° 0 mm 4 mps 651 mmHg 54%
    13:00 +26°C° 0 mm 4 mps 650 mmHg 50%
    14:00 +27°C° 0 mm 4 mps 649 mmHg 46%
    15:00 +26°C° 0 mm 4 mps 649 mmHg 49%
    16:00 +25°C° 0 mm 4 mps 648 mmHg 52%
    17:00 +23°C° 0 mm 4 mps 647 mmHg 55%
    18:00 +21°C° 0 mm 3 mps 647 mmHg 66%
    19:00 +19°C° 0 mm 3 mps 647 mmHg 77%
    20:00 +18°C° 0 mm 3 mps 647 mmHg 89%
    21:00 +17°C° 0 mm 3 mps 648 mmHg 90%
    22:00 +17°C° 0 mm 2 mps 648 mmHg 90%
    23:00 +17°C° 0 mm 2 mps 649 mmHg 91%

    26 March, Tuesday

    Time Temperature Precipitation Wind Pressure Humidity
    00:00 +17°C° 0 mm 2 mps 648 mmHg 92%
    01:00 +17°C° 0 mm 2 mps 648 mmHg 93%
    02:00 +16°C° 0 mm 2 mps 647 mmHg 94%
    03:00 +16°C° 0 mm 2 mps 647 mmHg 94%
    04:00 +17°C° 0 mm 3 mps 647 mmHg 93%
    05:00 +17°C° 0 mm 3 mps 647 mmHg 93%
    06:00 +17°C° 0.1 mm 3 mps 648 mmHg 91%
    07:00 +18°C° 0.1 mm 3 mps 649 mmHg 88%
    08:00 +18°C° 0.1 mm 3 mps 649 mmHg 85%
    09:00 +20°C° 0 mm 3 mps 650 mmHg 77%
    10:00 +22°C° 0 mm 3 mps 650 mmHg 69%
    11:00 +25°C° 0 mm 3 mps 651 mmHg 60%
    12:00 +26°C° 0 mm 3 mps 650 mmHg 57%
    13:00 +27°C° 0 mm 3 mps 650 mmHg 53%
    14:00 +28°C° 0 mm 3 mps 649 mmHg 49%
    15:00 +26°C° 0.2 mm 3 mps 648 mmHg 54%
    16:00 +25°C° 0.2 mm 3 mps 648 mmHg 58%
    17:00 +24°C° 0.2 mm 3 mps 647 mmHg 63%
    18:00 +22°C° 0 mm 3 mps 647 mmHg 71%
    19:00 +20°C° 0 mm 2 mps 647 mmHg 79%
    20:00 +18°C° 0 mm 2 mps 647 mmHg 87%
    21:00 +18°C° 0 mm 2 mps 648 mmHg 88%
    22:00 +18°C° 0 mm 2 mps 648 mmHg 90%
    23:00 +17°C° 0 mm 2 mps 648 mmHg 92%

    27 March, Wednesday

    Time Temperature Precipitation Wind Pressure Humidity
    00:00 +17°C° 0 mm 2 mps 648 mmHg 92%
    01:00 +17°C° 0 mm 2 mps 648 mmHg 92%
    02:00 +17°C° 0 mm 2 mps 647 mmHg 92%
    03:00 +17°C° 0 mm 2 mps 647 mmHg 92%
    04:00 +17°C° 0 mm 2 mps 647 mmHg 93%
    05:00 +17°C° 0 mm 2 mps 647 mmHg 93%
    06:00 +17°C° 0 mm 2 mps 648 mmHg 90%
    07:00 +18°C° 0 mm 2 mps 649 mmHg 88%
    08:00 +19°C° 0 mm 2 mps 650 mmHg 85%
    09:00 +21°C° 0 mm 2 mps 650 mmHg 74%
    10:00 +24°C° 0 mm 2 mps 651 mmHg 63%
    11:00 +27°C° 0 mm 2 mps 652 mmHg 52%
    12:00 +27°C° 0.1 mm 3 mps 651 mmHg 54%
    13:00 +27°C° 0.1 mm 3 mps 650 mmHg 56%
    14:00 +26°C° 0.1 mm 3 mps 649 mmHg 58%
    15:00 +25°C° 0.5 mm 3 mps 648 mmHg 64%
    16:00 +24°C° 0.5 mm 2 mps 648 mmHg 70%
    17:00 +23°C° 0.5 mm 2 mps 647 mmHg 76%
    18:00 +21°C° 0.3 mm 2 mps 647 mmHg 80%
    19:00 +20°C° 0.3 mm 2 mps 648 mmHg 84%
    20:00 +19°C° 0.3 mm 2 mps 648 mmHg 88%
    21:00 +19°C° 0.1 mm 2 mps 648 mmHg 88%
    22:00 +18°C° 0.1 mm 2 mps 648 mmHg 89%
    23:00 +18°C° 0.1 mm 2 mps 649 mmHg 90%
    Show more